,,PA_Meas_PMT16A,,PR_Meas_QMR101_102,,RH_Meas_QMH101,,SR_Meas_QMS101,,TA_Meas_QMH101,,GenWind,,GenWind,
time,status,PA,status,PR,status,RH,status,SR,status,TA,status,DirAvg,status,SpdAvg,
2009-12-14, 00:00:04,VALID,918.491,VALID,0,VALID,95.773,VALID,0,VALID,19.7988,VALID,169,VALID,0.272266,
2009-12-14, 00:01:04,VALID,918.504,VALID,0,VALID,95.773,VALID,0,VALID,19.7988,VALID,169,VALID,0.614453,
2009-12-14, 00:02:04,VALID,918.523,VALID,0,VALID,95.7958,VALID,0,VALID,19.7988,VALID,169,VALID,0.302734,
2009-12-14, 00:03:04,VALID,918.518,VALID,0,VALID,95.773,VALID,0,VALID,19.7793,VALID,169,VALID,0.552734,
2009-12-14, 00:04:04,VALID,918.493,VALID,0,VALID,95.834,VALID,0,VALID,19.7793,VALID,169,VALID,0.478125,
2009-12-14, 00:05:04,VALID,918.502,VALID,0,VALID,95.8645,VALID,0,VALID,19.7598,VALID,169,VALID,0.65625,
2009-12-14, 00:06:04,VALID,918.492,VALID,0,VALID,95.9254,VALID,0,VALID,19.7598,VALID,168,VALID,0.816797,
2009-12-14, 00:07:04,VALID,918.459,VALID,0,VALID,95.9254,VALID,0,VALID,19.7598,VALID,168,VALID,0.9125,
2009-12-14, 00:08:04,VALID,918.459,VALID,0,VALID,95.7958,VALID,0,VALID,19.7208,VALID,168,VALID,1.05273,
2009-12-14, 00:09:04,VALID,918.44,VALID,0,VALID,95.8873,VALID,0,VALID,19.6818,VALID,168,VALID,0.871484,
2009-12-14, 00:10:04,VALID,918.433,VALID,0,VALID,95.9331,VALID,0,VALID,19.6623,VALID,167,VALID,0.907812,
2009-12-14, 00:11:04,VALID,918.397,VALID,0,VALID,96.0093,VALID,0,VALID,19.6428,VALID,95,VALID,0.659375,
2009-12-14, 00:12:04,VALID,918.394,VALID,0,VALID,96.1236,VALID,0,VALID,19.6623,VALID,104,VALID,1.28047,
2009-12-14, 00:13:04,VALID,918.384,VALID,0,VALID,96.1084,VALID,0,VALID,19.6818,VALID,131,VALID,1.2168,
2009-12-14, 00:14:04,VALID,918.364,VALID,0,VALID,95.9788,VALID,0,VALID,19.6818,VALID,131,VALID,0.615625,
2009-12-14, 00:15:04,VALID,918.356,VALID,0,VALID,96.0779,VALID,0,VALID,19.6818,VALID,131,VALID,1.2418,
2009-12-14, 00:16:04,VALID,918.374,VALID,0,VALID,96.0322,VALID,0,VALID,19.7208,VALID,131,VALID,0.910547,
2009-12-14, 00:17:04,VALID,918.34,VALID,0,VALID,96.0703,VALID,0,VALID,19.7013,VALID,131,VALID,1.07734,
2009-12-14, 00:18:04,VALID,918.36,VALID,0,VALID,95.9788,VALID,0,VALID,19.7208,VALID,137,VALID,0.987109,
2009-12-14, 00:19:04,VALID,918.373,VALID,0,VALID,96.0245,VALID,0,VALID,19.7598,VALID,138,VALID,0.884766,
2009-12-14, 00:20:04,VALID,918.366,VALID,0,VALID,95.8873,VALID,0,VALID,19.7403,VALID,150,VALID,1.0293,
2009-12-14, 00:21:04,VALID,918.394,VALID,0,VALID,95.834,VALID,0,VALID,19.7793,VALID,152,VALID,0.662891,
2009-12-14, 00:22:04,VALID,918.385,VALID,0,VALID,95.6815,VALID,0,VALID,19.7793,VALID,152,VALID,0.645703,
2009-12-14, 00:23:04,VALID,918.383,VALID,0,VALID,95.5671,VALID,0,VALID,19.7583,VALID,152,VALID,0.686328,
2009-12-14, 00:24:04,VALID,918.412,VALID,0,VALID,95.6053,VALID,0,VALID,19.7793,VALID,152,VALID,1.20117,
2009-12-14, 00:25:04,VALID,918.381,VALID,0,VALID,95.7196,VALID,0,VALID,19.8003,VALID,152,VALID,1.0457,
2009-12-14, 00:26:04,VALID,918.401,VALID,0,VALID,95.6434,VALID,0,VALID,19.7403,VALID,152,VALID,1.06445,
2009-12-14, 00:27:04,VALID,918.392,VALID,0,VALID,95.7272,VALID,0,VALID,19.7598,VALID,152,VALID,0.542578,
2009-12-14, 00:28:04,VALID,918.368,VALID,0,VALID,95.9102,VALID,0,VALID,19.7793,VALID,151,VALID,1.44023,
2009-12-14, 00:29:04,VALID,918.382,VALID,0,VALID,95.8797,VALID,0,VALID,19.8183,VALID,150,VALID,1.07734,
2009-12-14, 00:30:04,VALID,918.386,VALID,0,VALID,95.6357,VALID,0,VALID,19.8183,VALID,150,VALID,0.5625,
2009-12-14, 00:31:04,VALID,918.367,VALID,0,VALID,95.5824,VALID,0,VALID,19.8378,VALID,150,VALID,0.851953,
2009-12-14, 00:32:04,VALID,918.344,VALID,0,VALID,95.468,VALID,0,VALID,19.8363,VALID,149,VALID,0.845312,
2009-12-14, 00:33:04,VALID,918.354,VALID,0,VALID,95.3842,VALID,0,VALID,19.8378,VALID,149,VALID,0.591797,
2009-12-14, 00:34:04,VALID,918.323,VALID,0,VALID,95.3689,VALID,0,VALID,19.8378,VALID,147,VALID,0.243359,
2009-12-14, 00:35:04,VALID,918.32,VALID,0,VALID,95.4452,VALID,0,VALID,19.8768,VALID,105,VALID,0.708594,
2009-12-14, 00:36:04,VALID,918.295,VALID,0,VALID,95.4223,VALID,0,VALID,19.9158,VALID,105,VALID,0.910547,
2009-12-14, 00:37:04,VALID,918.275,VALID,0,VALID,95.3156,VALID,0,VALID,19.9548,VALID,105,VALID,1.15078,
2009-12-14, 00:38:04,VALID,918.261,VALID,0,VALID,95.1631,VALID,0,VALID,19.9743,VALID,105,VALID,1.05391,
2009-12-14, 00:39:04,VALID,918.283,VALID,0,VALID,95.0488,VALID,0,VALID,19.9938,VALID,105,VALID,1.03711,
2009-12-14, 00:40:04,VALID,918.253,VALID,0,VALID,94.9725,VALID,0,VALID,20.0133,VALID,105,VALID,1.36992,
2009-12-14, 00:41:04,VALID,918.279,VALID,0,VALID,94.8277,VALID,0,VALID,19.9938,VALID,105,VALID,0.901953,
2009-12-14, 00:42:04,VALID,918.269,VALID,0,VALID,94.9039,VALID,0,VALID,19.9743,VALID,105,VALID,0.755469,
2009-12-14, 00:43:04,VALID,918.261,VALID,0,VALID,94.9115,VALID,0,VALID,19.9743,VALID,105,VALID,0.868359,
2009-12-14, 00:44:04,VALID,918.258,VALID,0,VALID,94.8505,VALID,0,VALID,19.9548,VALID,105,VALID,0.539063,
2009-12-14, 00:45:04,VALID,918.288,VALID,0,VALID,94.942,VALID,0,VALID,19.9353,VALID,105,VALID,0.815234,
2009-12-14, 00:46:04,VALID,918.301,VALID,0,VALID,95.0183,VALID,0,VALID,19.9548,VALID,105,VALID,1.0625,
2009-12-14, 00:47:04,VALID,918.26,VALID,0,VALID,95.0716,VALID,0,VALID,19.9533,VALID,119,VALID,1.49766,
2009-12-14, 00:48:04,VALID,918.258,VALID,0,VALID,95.0716,VALID,0,VALID,19.9548,VALID,115,VALID,1.31172,
2009-12-14, 00:49:04,VALID,918.254,VALID,0,VALID,95.1021,VALID,0,VALID,19.9743,VALID,115,VALID,1.77617,
2009-12-14, 00:50:04,VALID,918.215,VALID,0,VALID,94.9268,VALID,0,VALID,19.9938,VALID,130,VALID,0.969141,
2009-12-14, 00:51:04,VALID,918.211,VALID,0,VALID,94.9801,VALID,0,VALID,19.9938,VALID,136,VALID,1.30547,
2009-12-14, 00:52:04,VALID,918.179,VALID,0,VALID,95.003,VALID,0,VALID,19.9743,VALID,139,VALID,1.0668,
2009-12-14, 00:53:04,VALID,918.159,VALID,0,VALID,95.003,VALID,0,VALID,19.9548,VALID,124,VALID,1.33633,
2009-12-14, 00:54:04,VALID,918.139,VALID,0,VALID,95.0488,VALID,0,VALID,19.9548,VALID,124,VALID,1.18359,
2009-12-14, 00:55:04,VALID,918.079,VALID,0,VALID,95.0716,VALID,0,VALID,19.9353,VALID,129,VALID,1.46523,
2009-12-14, 00:56:04,VALID,918.094,VALID,0,VALID,95.1783,VALID,0,VALID,19.9158,VALID,129,VALID,0.854688,
2009-12-14, 00:57:04,VALID,918.065,VALID,0,VALID,95.247,VALID,0,VALID,19.9158,VALID,129,VALID,1.07734,
2009-12-14, 00:58:04,VALID,918.08,VALID,0,VALID,95.3308,VALID,0,VALID,19.9353,VALID,133,VALID,1.23516,
2009-12-14, 00:59:04,VALID,918.022,VALID,0,VALID,95.2622,VALID,0,VALID,19.9548,VALID,135,VALID,1.17344,
2009-12-14, 01:00:04,VALID,918.039,VALID,0,VALID,95.0259,VALID,0,VALID,19.9743,VALID,135,VALID,0.911719,
2009-12-14, 01:01:04,VALID,918.004,VALID,0,VALID,95.0411,VALID,0,VALID,20.0328,VALID,135,VALID,0.9375,
2009-12-14, 01:02:04,VALID,917.964,VALID,0,VALID,94.9268,VALID,0,VALID,20.0328,VALID,135,VALID,0.167578,
2009-12-14, 01:03:04,VALID,917.945,VALID,0,VALID,94.8963,VALID,0,VALID,20.0718,VALID,135,VALID,1.0082,
2009-12-14, 01:04:04,VALID,917.922,VALID,0,VALID,94.7438,VALID,0,VALID,20.1108,VALID,135,VALID,0.793359,
2009-12-14, 01:05:04,VALID,917.892,VALID,0,VALID,94.6828,VALID,0,VALID,20.1093,VALID,135,VALID,0.785156,
2009-12-14, 01:06:04,VALID,917.845,VALID,0,VALID,94.5532,VALID,0,VALID,20.1498,VALID,135,VALID,0.558984,
2009-12-14, 01:07:04,VALID,917.817,VALID,0,VALID,94.4008,VALID,0,VALID,20.1693,VALID,135,VALID,0.557031,
2009-12-14, 01:08:04,VALID,917.783,VALID,0,VALID,94.2102,VALID,0,VALID,20.2083,VALID,135,VALID,0.963672,
2009-12-14, 01:09:04,VALID,917.756,VALID,0,VALID,93.9434,VALID,0,VALID,20.2668,VALID,135,VALID,0.902344,
2009-12-14, 01:10:04,VALID,917.724,VALID,0,VALID,93.9815,VALID,0,VALID,20.2668,VALID,135,VALID,0.644141,
2009-12-14, 01:11:04,VALID,917.693,VALID,0,VALID,94.0196,VALID,0,VALID,20.2473,VALID,162,VALID,0.960938,
2009-12-14, 01:12:04,VALID,917.681,VALID,0,VALID,93.9891,VALID,0,VALID,20.2668,VALID,163,VALID,0.754687,
2009-12-14, 01:13:04,VALID,917.666,VALID,0,VALID,93.9815,VALID,0,VALID,20.2263,VALID,163,VALID,0.9375,
2009-12-14, 01:14:04,VALID,917.649,VALID,0,VALID,93.9662,VALID,0,VALID,20.2473,VALID,163,VALID,0.778125,
2009-12-14, 01:15:04,VALID,917.63,VALID,0,VALID,93.9815,VALID,0,VALID,20.2278,VALID,163,VALID,0.652734,
2009-12-14, 01:16:04,VALID,917.597,VALID,0,VALID,93.9586,VALID,0,VALID,20.2068,VALID,163,VALID,1.0875,
2009-12-14, 01:17:04,VALID,917.6,VALID,0,VALID,94.0043,VALID,0,VALID,20.1873,VALID,163,VALID,0.931641,
2009-12-14, 01:18:04,VALID,917.593,VALID,0,VALID,93.9967,VALID,0,VALID,20.1888,VALID,163,VALID,0.666016,
2009-12-14, 01:19:04,VALID,917.593,VALID,0,VALID,94.1263,VALID,0,VALID,20.1693,VALID,163,VALID,0.293359,
2009-12-14, 01:20:04,VALID,917.581,VALID,0,VALID,94.1949,VALID,0,VALID,20.1498,VALID,163,VALID,0.290234,
2009-12-14, 01:21:04,VALID,917.529,VALID,0,VALID,94.3474,VALID,0,VALID,20.0898,VALID,163,VALID,0.687109,
2009-12-14, 01:22:04,VALID,917.572,VALID,0,VALID,94.5532,VALID,0,VALID,20.0703,VALID,163,VALID,0.391797,
2009-12-14, 01:23:04,VALID,917.53,VALID,0,VALID,94.6981,VALID,0,VALID,20.0328,VALID,163,VALID,0.241797,
2009-12-14, 01:24:04,VALID,917.524,VALID,0,VALID,94.8048,VALID,0,VALID,19.9743,VALID,163,VALID,0.468359,
2009-12-14, 01:25:04,VALID,917.484,VALID,0,VALID,94.9344,VALID,0,VALID,19.9548,VALID,163,VALID,0.00195313,
2009-12-14, 01:26:04,VALID,917.454,VALID,0,VALID,94.9801,VALID,0,VALID,19.9158,VALID,163,VALID,0,
2009-12-14, 01:27:04,VALID,917.448,VALID,0,VALID,95.0869,VALID,0,VALID,19.8963,VALID,163,VALID,0,
2009-12-14, 01:28:04,VALID,917.367,VALID,0,VALID,95.1631,VALID,0,VALID,19.8573,VALID,163,VALID,0,
2009-12-14, 01:29:04,VALID,917.349,VALID,0,VALID,95.2393,VALID,0,VALID,19.8573,VALID,163,VALID,0.0183594,
2009-12-14, 01:30:04,VALID,917.347,VALID,0,VALID,95.2698,VALID,0,VALID,19.8168,VALID,163,VALID,0.0445312,
2009-12-14, 01:31:04,VALID,917.361,VALID,0,VALID,95.2927,VALID,0.107441,VALID,19.8168,VALID,163,VALID,0,
2009-12-14, 01:32:04,VALID,917.376,VALID,0,VALID,95.2393,VALID,0,VALID,19.7778,VALID,163,VALID,0,
2009-12-14, 01:33:04,VALID,917.374,VALID,0,VALID,95.2927,VALID,0.107441,VALID,19.7778,VALID,163,VALID,0,
2009-12-14, 01:34:04,VALID,917.421,VALID,0,VALID,95.468,VALID,0.107441,VALID,19.7778,VALID,163,VALID,0.391797,
2009-12-14, 01:35:04,VALID,917.405,VALID,0,VALID,95.5062,VALID,0.107441,VALID,19.7373,VALID,163,VALID,0.365234,
2009-12-14, 01:36:04,VALID,917.436,VALID,0,VALID,95.468,VALID,0,VALID,19.7193,VALID,163,VALID,0.696484,
2009-12-14, 01:37:04,VALID,917.423,VALID,0,VALID,95.468,VALID,0,VALID,19.6998,VALID,163,VALID,0.592188,
2009-12-14, 01:38:04,VALID,917.45,VALID,0,VALID,95.5595,VALID,0.107441,VALID,19.6998,VALID,163,VALID,0.0121094,
2009-12-14, 01:39:04,VALID,917.426,VALID,0,VALID,95.6357,VALID,0.107441,VALID,19.6803,VALID,163,VALID,0,
2009-12-14, 01:40:04,VALID,917.435,VALID,0,VALID,95.6129,VALID,0,VALID,19.6608,VALID,163,VALID,0,
2009-12-14, 01:41:04,VALID,917.409,VALID,0,VALID,95.7425,VALID,0,VALID,19.6608,VALID,158,VALID,0.433984,
2009-12-14, 01:42:04,VALID,917.401,VALID,0,VALID,95.8035,VALID,0,VALID,19.6818,VALID,158,VALID,0.309375,
2009-12-14, 01:43:04,VALID,917.403,VALID,0,VALID,95.8416,VALID,0,VALID,19.6608,VALID,158,VALID,0.509375,
2009-12-14, 01:44:04,VALID,917.374,VALID,0,VALID,95.9483,VALID,0.107441,VALID,19.6803,VALID,158,VALID,0.701953,
2009-12-14, 01:45:04,VALID,917.385,VALID,0,VALID,95.9102,VALID,0,VALID,19.6818,VALID,158,VALID,0.278516,
2009-12-14, 01:46:04,VALID,917.385,VALID,0,VALID,95.8111,VALID,0,VALID,19.6608,VALID,157,VALID,0.694531,
2009-12-14, 01:47:04,VALID,917.37,VALID,0,VALID,95.651,VALID,0,VALID,19.6218,VALID,157,VALID,0.823828,
2009-12-14, 01:48:04,VALID,917.354,VALID,0,VALID,95.7577,VALID,0,VALID,19.6023,VALID,157,VALID,0.794922,
2009-12-14, 01:49:04,VALID,917.349,VALID,0,VALID,95.9941,VALID,0,VALID,19.6203,VALID,157,VALID,0.790234,
2009-12-14, 01:50:04,VALID,917.351,VALID,0,VALID,96.0779,VALID,0,VALID,19.6608,VALID,157,VALID,0.846875,
2009-12-14, 01:51:04,VALID,917.32,VALID,0,VALID,96.0245,VALID,0,VALID,19.6803,VALID,157,VALID,0.9375,
2009-12-14, 01:52:04,VALID,917.34,VALID,0,VALID,95.9102,VALID,0,VALID,19.7193,VALID,156,VALID,0.807422,
2009-12-14, 01:53:04,VALID,917.33,VALID,0,VALID,95.6891,VALID,0.107441,VALID,19.7388,VALID,156,VALID,0.670703,
2009-12-14, 01:54:04,VALID,917.309,VALID,0,VALID,95.5519,VALID,0,VALID,19.7583,VALID,156,VALID,0.308594,
2009-12-14, 01:55:04,VALID,917.315,VALID,0,VALID,95.4223,VALID,0,VALID,19.7583,VALID,156,VALID,0.158984,
2009-12-14, 01:56:04,VALID,917.302,VALID,0,VALID,95.3994,VALID,0,VALID,19.7778,VALID,156,VALID,0.36875,
2009-12-14, 01:57:04,VALID,917.322,VALID,0,VALID,95.3918,VALID,0.107441,VALID,19.7583,VALID,156,VALID,0.10625,
2009-12-14, 01:58:04,VALID,917.303,VALID,0,VALID,95.3918,VALID,0,VALID,19.7583,VALID,156,VALID,0,
2009-12-14, 01:59:04,VALID,917.307,VALID,0,VALID,95.3461,VALID,0,VALID,19.7778,VALID,156,VALID,0,
2009-12-14, 02:00:04,VALID,917.276,VALID,0,VALID,95.186,VALID,0,VALID,19.7403,VALID,156,VALID,0,
2009-12-14, 02:01:04,VALID,917.307,VALID,0,VALID,95.2698,VALID,0,VALID,19.7208,VALID,156,VALID,0,
2009-12-14, 02:02:04,VALID,917.274,VALID,0,VALID,95.4452,VALID,0,VALID,19.7403,VALID,156,VALID,0,
2009-12-14, 02:03:04,VALID,917.263,VALID,0,VALID,95.5138,VALID,0,VALID,19.7403,VALID,156,VALID,0,
2009-12-14, 02:04:04,VALID,917.214,VALID,0,VALID,95.59,VALID,0,VALID,19.7403,VALID,156,VALID,0,
2009-12-14, 02:05:04,VALID,917.209,VALID,0,VALID,95.6434,VALID,0,VALID,19.7988,VALID,156,VALID,0,
2009-12-14, 02:06:04,VALID,917.189,VALID,0,VALID,95.5671,VALID,0,VALID,19.7988,VALID,156,VALID,0,
2009-12-14, 02:07:04,VALID,917.203,VALID,0,VALID,95.5138,VALID,0,VALID,19.8183,VALID,156,VALID,0.530078,
2009-12-14, 02:08:04,VALID,917.192,VALID,0,VALID,95.3994,VALID,0,VALID,19.7988,VALID,156,VALID,0.511719,
2009-12-14, 02:09:04,VALID,917.161,VALID,0,VALID,95.3232,VALID,0,VALID,19.7988,VALID,156,VALID,0.415625,
2009-12-14, 02:10:04,VALID,917.167,VALID,0,VALID,95.247,VALID,0,VALID,19.7598,VALID,156,VALID,0.178906,
2009-12-14, 02:11:04,VALID,917.14,VALID,0,VALID,95.2088,VALID,0,VALID,19.7403,VALID,156,VALID,0.0328125,
2009-12-14, 02:12:04,VALID,917.147,VALID,0,VALID,95.0869,VALID,0,VALID,19.7193,VALID,156,VALID,0.0414063,
2009-12-14, 02:13:04,VALID,917.116,VALID,0,VALID,94.9878,VALID,0,VALID,19.6818,VALID,156,VALID,0,
2009-12-14, 02:14:04,VALID,917.126,VALID,0,VALID,95.0716,VALID,0,VALID,19.6623,VALID,156,VALID,0.289844,
2009-12-14, 02:15:04,VALID,917.094,VALID,0,VALID,95.3537,VALID,0,VALID,19.6413,VALID,156,VALID,0.397266,
2009-12-14, 02:16:04,VALID,917.094,VALID,0,VALID,95.468,VALID,0,VALID,19.6218,VALID,156,VALID,0.640625,
2009-12-14, 02:17:04,VALID,917.075,VALID,0,VALID,95.0488,VALID,0,VALID,19.5828,VALID,156,VALID,0.336719,
2009-12-14, 02:18:04,VALID,917.066,VALID,0,VALID,94.4999,VALID,0,VALID,19.5063,VALID,156,VALID,0.388672,
2009-12-14, 02:19:04,VALID,917.059,VALID,0,VALID,94.7362,VALID,0,VALID,19.4074,VALID,156,VALID,0.536328,
2009-12-14, 02:20:04,VALID,917.064,VALID,0,VALID,95.3537,VALID,0,VALID,19.3879,VALID,156,VALID,0.644922,
2009-12-14, 02:21:04,VALID,917.044,VALID,0,VALID,95.8187,VALID,0,VALID,19.3893,VALID,156,VALID,0.957031,
2009-12-14, 02:22:04,VALID,917.03,VALID,0,VALID,96.1846,VALID,0,VALID,19.4463,VALID,125,VALID,1.7332,
2009-12-14, 02:23:04,VALID,917.038,VALID,0,VALID,96.0855,VALID,0.107441,VALID,19.4658,VALID,129,VALID,1.44727,
2009-12-14, 02:24:04,VALID,917.042,VALID,0,VALID,95.8568,VALID,0,VALID,19.4658,VALID,134,VALID,1.03281,
2009-12-14, 02:25:04,VALID,917.01,VALID,0,VALID,95.7272,VALID,0,VALID,19.4463,VALID,143,VALID,0.851172,
2009-12-14, 02:26:04,VALID,917.007,VALID,0,VALID,95.895,VALID,0,VALID,19.4463,VALID,143,VALID,1.18516,
2009-12-14, 02:27:04,VALID,916.971,VALID,0,VALID,95.8797,VALID,0,VALID,19.3879,VALID,143,VALID,0.750391,
2009-12-14, 02:28:04,VALID,916.959,VALID,0,VALID,95.9712,VALID,0,VALID,19.3294,VALID,143,VALID,0.775,
2009-12-14, 02:29:04,VALID,916.949,VALID,0,VALID,96.1313,VALID,0,VALID,19.3308,VALID,143,VALID,1.13008,
2009-12-14, 02:30:04,VALID,916.921,VALID,0,VALID,96.2761,VALID,0,VALID,19.2723,VALID,143,VALID,0.932422,
2009-12-14, 02:31:04,VALID,916.898,VALID,0,VALID,96.3371,VALID,0,VALID,19.2124,VALID,143,VALID,0.672656,
2009-12-14, 02:32:04,VALID,916.895,VALID,0,VALID,96.4743,VALID,0,VALID,19.2139,VALID,143,VALID,0.810938,
2009-12-14, 02:33:04,VALID,916.885,VALID,0,VALID,96.5353,VALID,0,VALID,19.2139,VALID,143,VALID,0.796094,
2009-12-14, 02:34:04,VALID,916.893,VALID,0,VALID,96.6344,VALID,0,VALID,19.1944,VALID,143,VALID,0.655469,
2009-12-14, 02:35:04,VALID,916.854,VALID,0,VALID,96.7488,VALID,0,VALID,19.2139,VALID,143,VALID,0.935938,
2009-12-14, 02:36:04,VALID,916.871,VALID,0,VALID,96.7945,VALID,0,VALID,19.2139,VALID,143,VALID,1.01992,
2009-12-14, 02:37:04,VALID,916.849,VALID,0,VALID,96.8326,VALID,0,VALID,19.2334,VALID,144,VALID,0.696875,
2009-12-14, 02:38:04,VALID,916.861,VALID,0,VALID,96.8784,VALID,0,VALID,19.2528,VALID,144,VALID,0.732813,
2009-12-14, 02:39:04,VALID,916.848,VALID,0,VALID,96.8098,VALID,0,VALID,19.2334,VALID,144,VALID,0.822656,
2009-12-14, 02:40:04,VALID,916.849,VALID,0,VALID,96.7869,VALID,0,VALID,19.2334,VALID,144,VALID,0.500781,
2009-12-14, 02:41:04,VALID,916.845,VALID,0,VALID,96.7488,VALID,0,VALID,19.1944,VALID,144,VALID,1.02539,
2009-12-14, 02:42:04,VALID,916.804,VALID,0,VALID,96.8707,VALID,0,VALID,19.2334,VALID,144,VALID,0.594141,
2009-12-14, 02:43:04,VALID,916.841,VALID,0,VALID,96.8707,VALID,0,VALID,19.2334,VALID,144,VALID,0.661719,
2009-12-14, 02:44:04,VALID,916.819,VALID,0,VALID,96.5429,VALID,0,VALID,19.1554,VALID,144,VALID,0.504297,
2009-12-14, 02:45:04,VALID,916.814,VALID,0,VALID,96.6954,VALID,0,VALID,19.1958,VALID,144,VALID,0.728516,
2009-12-14, 02:46:04,VALID,916.799,VALID,0,VALID,96.7945,VALID,0,VALID,19.2139,VALID,144,VALID,0.7125,
2009-12-14, 02:47:04,VALID,916.749,VALID,0,VALID,96.7945,VALID,0,VALID,19.2153,VALID,144,VALID,0.653516,
2009-12-14, 02:48:04,VALID,916.756,VALID,0,VALID,96.7793,VALID,0,VALID,19.1944,VALID,144,VALID,0.973047,
2009-12-14, 02:49:04,VALID,916.726,VALID,0,VALID,96.764,VALID,0,VALID,19.1944,VALID,144,VALID,0.465625,
2009-12-14, 02:50:04,VALID,916.734,VALID,0,VALID,96.7259,VALID,0,VALID,19.1944,VALID,144,VALID,0.898828,
2009-12-14, 02:51:04,VALID,916.741,VALID,0,VALID,96.703,VALID,0,VALID,19.1958,VALID,144,VALID,0.9875,
2009-12-14, 02:52:04,VALID,916.72,VALID,0,VALID,96.6268,VALID,0,VALID,19.1554,VALID,144,VALID,1.05742,
2009-12-14, 02:53:04,VALID,916.755,VALID,0,VALID,96.7488,VALID,0,VALID,19.1944,VALID,144,VALID,0.890625,
2009-12-14, 02:54:04,VALID,916.739,VALID,0,VALID,96.7335,VALID,0,VALID,19.1944,VALID,144,VALID,0.715234,
2009-12-14, 02:55:04,VALID,916.74,VALID,0,VALID,96.6954,VALID,0,VALID,19.1749,VALID,144,VALID,0.540234,
2009-12-14, 02:56:04,VALID,916.737,VALID,0,VALID,96.6954,VALID,0,VALID,19.1749,VALID,144,VALID,0.509375,
2009-12-14, 02:57:04,VALID,916.714,VALID,0,VALID,96.703,VALID,0,VALID,19.1958,VALID,144,VALID,0.666797,
2009-12-14, 02:58:04,VALID,916.695,VALID,0,VALID,96.7107,VALID,0,VALID,19.1944,VALID,145,VALID,1.08789,
2009-12-14, 02:59:04,VALID,916.679,VALID,0,VALID,96.7107,VALID,0,VALID,19.1944,VALID,153,VALID,1.17539,
2009-12-14, 03:00:05,VALID,916.705,VALID,0,VALID,96.7488,VALID,0,VALID,19.2543,VALID,158,VALID,1.14453,
2009-12-14, 03:01:05,VALID,916.685,VALID,0,VALID,96.7869,VALID,0,VALID,19.2738,VALID,159,VALID,1.27422,
2009-12-14, 03:02:05,VALID,916.661,VALID,0,VALID,96.6954,VALID,0,VALID,19.2528,VALID,159,VALID,1.15352,
2009-12-14, 03:03:05,VALID,916.644,VALID,0,VALID,96.6497,VALID,0,VALID,19.2918,VALID,160,VALID,1.11406,
2009-12-14, 03:04:05,VALID,916.584,VALID,0,VALID,96.703,VALID,0,VALID,19.3518,VALID,160,VALID,0.975391,
2009-12-14, 03:05:05,VALID,916.587,VALID,0,VALID,96.6497,VALID,0,VALID,19.3503,VALID,160,VALID,0.605469,
2009-12-14, 03:06:05,VALID,916.554,VALID,0,VALID,96.5277,VALID,0,VALID,19.3503,VALID,160,VALID,0.719141,
2009-12-14, 03:07:05,VALID,916.567,VALID,0,VALID,96.4896,VALID,0,VALID,19.3503,VALID,160,VALID,0.40625,
2009-12-14, 03:08:05,VALID,916.552,VALID,0,VALID,96.3752,VALID,0,VALID,19.3113,VALID,160,VALID,0.544141,
2009-12-14, 03:09:05,VALID,916.547,VALID,0,VALID,96.2151,VALID,0,VALID,19.2723,VALID,160,VALID,0.220703,
2009-12-14, 03:10:05,VALID,916.563,VALID,0,VALID,96.2304,VALID,0,VALID,19.2918,VALID,160,VALID,0.350781,
2009-12-14, 03:11:05,VALID,916.541,VALID,0,VALID,96.3295,VALID,0,VALID,19.2738,VALID,160,VALID,0.569141,
2009-12-14, 03:12:05,VALID,916.576,VALID,0,VALID,96.5048,VALID,0,VALID,19.2933,VALID,160,VALID,0.908984,
2009-12-14, 03:13:05,VALID,916.566,VALID,0,VALID,96.5277,VALID,0,VALID,19.2933,VALID,161,VALID,0.308984,
2009-12-14, 03:14:05,VALID,916.573,VALID,0,VALID,96.1541,VALID,0,VALID,19.1749,VALID,160,VALID,0.169922,
2009-12-14, 03:15:04,VALID,916.567,VALID,0,VALID,96.0322,VALID,0,VALID,19.0954,VALID,161,VALID,0,
2009-12-14, 03:16:05,VALID,916.56,VALID,0,VALID,96.0322,VALID,0.107441,VALID,19.0564,VALID,160,VALID,0,
2009-12-14, 03:17:05,VALID,916.486,VALID,0,VALID,96.2685,VALID,0,VALID,19.0369,VALID,160,VALID,0,
2009-12-14, 03:18:05,VALID,916.491,VALID,0,VALID,96.299,VALID,0,VALID,19.0384,VALID,160,VALID,0,
2009-12-14, 03:19:05,VALID,916.437,VALID,0,VALID,96.3829,VALID,0,VALID,18.9994,VALID,160,VALID,0,
2009-12-14, 03:20:05,VALID,916.397,VALID,0,VALID,96.5124,VALID,0,VALID,18.9994,VALID,160,VALID,0,
2009-12-14, 03:21:05,VALID,916.427,VALID,0,VALID,96.6725,VALID,0,VALID,19.0189,VALID,160,VALID,0.313281,
2009-12-14, 03:22:05,VALID,916.412,VALID,0,VALID,96.7716,VALID,0,VALID,19.0579,VALID,160,VALID,0.498047,
2009-12-14, 03:23:05,VALID,916.401,VALID,0,VALID,96.8479,VALID,0,VALID,19.0579,VALID,160,VALID,0.80625,
2009-12-14, 03:24:05,VALID,916.392,VALID,0,VALID,96.8021,VALID,0,VALID,19.0579,VALID,160,VALID,0.739453,
2009-12-14, 03:25:05,VALID,916.394,VALID,0,VALID,96.7488,VALID,0,VALID,19.0189,VALID,160,VALID,0.592969,
2009-12-14, 03:26:05,VALID,916.419,VALID,0,VALID,96.825,VALID,0,VALID,19.0384,VALID,161,VALID,0.582812,
2009-12-14, 03:27:05,VALID,916.417,VALID,0,VALID,96.9317,VALID,0.107441,VALID,19.0969,VALID,161,VALID,0.813281,
2009-12-14, 03:28:05,VALID,916.422,VALID,0,VALID,96.9089,VALID,0,VALID,19.0969,VALID,160,VALID,0.561328,
2009-12-14, 03:29:05,VALID,916.405,VALID,0,VALID,96.9012,VALID,0,VALID,19.1359,VALID,161,VALID,0.599219,
2009-12-14, 03:30:05,VALID,916.388,VALID,0,VALID,96.8403,VALID,0,VALID,19.1164,VALID,161,VALID,0.286719,
2009-12-14, 03:31:05,VALID,916.416,VALID,0,VALID,96.7488,VALID,0,VALID,19.0774,VALID,160,VALID,0.423828,
2009-12-14, 03:32:05,VALID,916.42,VALID,0,VALID,96.6878,VALID,0,VALID,19.0579,VALID,160,VALID,0.446484,
2009-12-14, 03:33:05,VALID,916.385,VALID,0,VALID,96.6725,VALID,0,VALID,19.0189,VALID,160,VALID,0.4625,
2009-12-14, 03:34:05,VALID,916.366,VALID,0,VALID,96.642,VALID,0,VALID,19.0203,VALID,160,VALID,0.508594,
2009-12-14, 03:35:05,VALID,916.395,VALID,0,VALID,96.6573,VALID,0,VALID,18.9799,VALID,161,VALID,0.651563,
2009-12-14, 03:36:05,VALID,916.349,VALID,0,VALID,96.703,VALID,0,VALID,18.9409,VALID,160,VALID,0.677344,
2009-12-14, 03:37:05,VALID,916.345,VALID,0,VALID,96.8021,VALID,0,VALID,18.9409,VALID,160,VALID,0.951563,
2009-12-14, 03:38:05,VALID,916.37,VALID,0,VALID,96.8479,VALID,0,VALID,18.9409,VALID,160,VALID,1.05703,
2009-12-14, 03:39:05,VALID,916.368,VALID,0,VALID,96.9089,VALID,0,VALID,18.92,VALID,160,VALID,0.951172,
2009-12-14, 03:40:05,VALID,916.37,VALID,0,VALID,96.9165,VALID,0,VALID,18.9019,VALID,160,VALID,0.644141,
2009-12-14, 03:41:05,VALID,916.343,VALID,0,VALID,96.8784,VALID,0,VALID,18.8434,VALID,161,VALID,0.827734,
2009-12-14, 03:42:05,VALID,916.355,VALID,0,VALID,96.9241,VALID,0,VALID,18.8434,VALID,160,VALID,0.816797,
2009-12-14, 03:43:05,VALID,916.353,VALID,0,VALID,96.9241,VALID,0,VALID,18.8045,VALID,161,VALID,1.0168,
2009-12-14, 03:44:05,VALID,916.362,VALID,0,VALID,97.0461,VALID,0,VALID,18.8225,VALID,160,VALID,1.13555,
2009-12-14, 03:45:05,VALID,916.368,VALID,0,VALID,97.0537,VALID,0,VALID,18.8449,VALID,160,VALID,1.19102,